Regional Weather Roundup
Issued by NWS

Home | Current Version | Previous Version | Text Only | Print | Product List | Glossary Off
Versions: 1 2 3 4 5 6 7 8 9 10 11 12 13 14 15 16 17 18 19 20 21 22 23 24 25 26 27 28

000
ASUS45 KCYS 180510
RWRWY

WYOMING REGIONAL WEATHER ROUNDUP
NATIONAL WEATHER SERVICE CHEYENNE WY
1100 PM MDT TUE OCT 17 2017

NOTE:  "FAIR" INDICATES FEW OR NO CLOUDS BELOW 12,000 FEET
WITH NO SIGNIFICANT WEATHER AND/OR OBSTRUCTIONS TO VISIBILITY.

WYZ001-180600-
YELLOWSTONE NATIONAL PARK

CITY           SKY/WX    TMP DP  RH WIND       PRES   REMARKS
LK YELLOWSTONE NOT AVBL
W YELLOWSTONE  NOT AVBL

$$
WYZ002>013-054>058-071-098>099-180600-
NORTHERN WYOMING

CITY           SKY/WX    TMP DP  RH WIND       PRES   REMARKS
JACKSON        FAIR      46  14  27 SW9       30.15R
CODY           FAIR      62  14  15 SE12G21   29.93F
GREYBULL       FAIR      55  25  31 S5        29.88R
WORLAND        FAIR      47  28  47 S7        29.89F
SHERIDAN       FAIR      66  20  17 SW9       29.78F
BUFFALO        FAIR      68  11  11 SW23G30   29.87F
GILLETTE       FAIR      63  20  19 SW21G28   29.84F
HULETT         FAIR      63  19  19 SW13      29.83F
NEWCASTLE      FAIR      45  27  49 E13       29.91S

$$
WYZ014>020-022>026-101>103-180600-
CENTRAL WYOMING

CITY           SKY/WX    TMP DP  RH WIND       PRES   REMARKS
BIG PINEY      FAIR      38   7  27 S3        30.22R
PINEDALE       FAIR      36  18  48 W3        30.22S
DUBOIS         FAIR      52   5  15 W30G39    30.09F
LANDER         FAIR      56  11  16 W13       30.02R
RIVERTON       FAIR      49  20  31 N6        30.03S
CASPER         FAIR      59  12  15 SW23      29.99F
DOUGLAS        FAIR      57  16  20 VRB3      29.97F

$$
WYZ021-027>030-104>119-180600-
SOUTHERN WYOMING

CITY           SKY/WX    TMP DP  RH WIND       PRES   REMARKS
EVANSTON       FAIR      52   7  16 W5        30.25R
KEMMERER       FAIR      43   7  22 N3        30.24F
FORT BRIDGER   FAIR      51   3  14 SW9       30.26S
ROCK SPRINGS   FAIR      48   3  15 S10       30.20S
DIXON          FAIR      37  14  38 CALM      30.25S
RAWLINS        FAIR      51   7  16 SW13      30.18R
SARATOGA       FAIR      41  12  30 S8        30.21S
LARAMIE        FAIR      49  11  21 S10       30.18S
CHEYENNE       FAIR      55  14  19 SW12      30.09F
TORRINGTON     FAIR      55  18  23 CALM      29.96S
PINE BLUFFS    FAIR      41  27  56 MISG      30.07F

$$




USA.gov is the U.S. government's official web portal to all federal, state and local government web resources and services.